Location: Bluejay Creek
(37.7819°N, 119.6118°W)
Time: 12:04:41
(UTC+00:00)

Cosmos 1953 - Pass Details

Date: 05 August 2024
Orbit: 504 x 524 km, 82.5° (Epoch: 15 September)

Event Time Altitude Azimuth Distance (km) Brightness Sun altitude
Rises 12:13:43 0° 176° (S) 2,590 5.5 -10.1°
Reaches altitude 10° 12:15:50 10° 172° (S) 1,712 4.6 -9.7°
Maximum altitude 12:19:30 54° 94° (E) 620 2.9 -9.1°
Drops below altitude 10° 12:23:13 10° 17° (NNE) 1,737 5.6 -8.4°
Sets 12:25:23 0° 12° (NNE) 2,632 6.5 -8.1°
